Total_Precipitation_Accumulation
0.07 0.16 0.31 0.63 1.54 1.86 1.54 0.83 0.57 0.44 0.43 0.53 0.52 0.49 0.66 0.91 1.17 1.65 1.12 0.55 0.28 0.23 0.29 0.42 0.59 0.64 0.62 0.59 0.61 0.65 0.70 0.79 0.96 1.17 1.37 1.32 1.28 1.28 1.29 1.29 1.36 1.38 1.33 1.23 1.14 1.11 1.02 0.92 0.82
0.12 0.24 0.42 0.84 1.76 2.16 1.65 0.81 0.51 0.36 0.42 0.55 0.64 0.60 0.54 0.61 0.45 0.47 0.70 0.74 0.35 0.24 0.26 0.34 0.48 0.58 0.60 0.61 0.64 0.70 0.77 0.85 0.97 1.03 1.17 1.22 1.23 1.24 1.25 1.27 1.26 1.22 1.15 1.07 0.99 0.89 0.83 0.79 0.72
0.17 0.26 0.50 0.96 1.27 1.39 1.17 0.66 0.42 0.40 0.43 0.59 0.66 0.50 0.47 0.63 0.48 0.46 0.56 0.55 0.34 0.24 0.25 0.36 0.41 0.49 0.58 0.62 0.66 0.69 0.77 0.87 0.90 0.89 0.98 1.11 1.16 1.18 1.23 1.24 1.20 1.12 1.05 0.98 0.89 0.78 0.73 0.71 0.68
0.16 0.26 0.47 0.68 0.65 0.56 0.49 0.41 0.39 0.42 0.47 0.48 0.56 0.55 0.46 0.56 0.47 0.46 0.52 0.46 0.34 0.26 0.24 0.38 0.43 0.43 0.48 0.56 0.60 0.59 0.66 0.79 0.81 0.81 0.88 1.01 1.07 1.10 1.17 1.14 1.09 1.05 1.01 0.89 0.84 0.75 0.69 0.64 0.62
0.14 0.28 0.51 0.52 0.38 0.38 0.41 0.40 0.44 0.50 0.50 0.60 0.71 0.73 0.74 0.64 0.50 0.62 0.75 0.65 0.46 0.36 0.31 0.39 0.46 0.46 0.47 0.52 0.55 0.59 0.59 0.69 0.76 0.81 0.90 0.97 0.96 1.00 1.04 0.99 0.96 0.93 0.90 0.81 0.80 0.76 0.70 0.69 0.69
0.16 0.32 0.36 0.34 0.30 0.32 0.39 0.40 0.42 0.49 0.56 0.78 0.83 0.74 0.84 0.82 0.66 0.73 0.80 0.97 0.78 0.47 0.36 0.38 0.48 0.50 0.48 0.53 0.59 0.62 0.62 0.71 0.78 0.78 0.81 0.84 0.82 0.87 0.86 0.89 0.93 0.91 0.86 0.79 0.77 0.71 0.69 0.71 0.72
0.18 0.33 0.28 0.24 0.22 0.25 0.27 0.36 0.47 0.50 0.61 0.76 0.68 0.66 0.91 1.08 0.88 0.83 0.84 0.91 0.79 0.54 0.50 0.46 0.43 0.43 0.47 0.56 0.62 0.63 0.63 0.71 0.77 0.74 0.72 0.77 0.83 0.86 0.83 0.88 0.91 0.87 0.80 0.74 0.73 0.60 0.58 0.59 0.65
0.10 0.17 0.18 0.18 0.16 0.20 0.19 0.24 0.39 0.54 0.60 0.58 0.62 0.82 1.18 1.12 0.77 0.76 0.84 0.89 0.81 0.72 0.67 0.65 0.60 0.53 0.47 0.50 0.62 0.69 0.69 0.72 0.73 0.76 0.78 0.85 0.94 0.92 0.87 0.78 0.82 0.81 0.76 0.76 0.74 0.66 0.62 0.66 0.74
0.06 0.10 0.13 0.12 0.10 0.16 0.17 0.22 0.32 0.47 0.51 0.58 0.76 0.84 0.91 0.76 0.62 0.79 0.97 1.12 1.18 1.00 0.90 0.85 0.71 0.62 0.57 0.49 0.51 0.63 0.70 0.74 0.82 0.89 0.92 1.11 1.29 1.22 1.21 1.03 1.09 1.05 0.98 1.00 1.01 0.95 0.86 0.81 0.78
0.06 0.08 0.08 0.06 0.07 0.13 0.14 0.23 0.38 0.56 0.66 0.88 1.19 1.24 0.97 0.82 0.76 0.87 1.13 1.26 1.50 1.27 0.97 0.91 0.77 0.69 0.61 0.52 0.63 0.85 0.82 0.89 1.02 1.15 1.22 1.54 1.76 1.73 1.38 1.50 1.61 1.56 1.54 1.44 1.43 1.60 1.36 1.07 1.01
0.03 0.04 0.02 0.04 0.04 0.06 0.12 0.19 0.29 0.47 0.84 1.32 1.39 1.20 0.98 1.05 1.08 1.08 1.38 1.47 1.41 1.26 1.24 1.18 0.98 0.90 0.86 0.94 0.87 1.00 1.15 1.33 1.29 1.25 1.43 1.82 1.71 1.56 1.45 1.56 1.88 2.03 2.08 1.98 1.97 2.09 1.80 1.70 1.87
0.02 0.01 0.01 0.03 0.04 0.06 0.07 0.10 0.21 0.44 0.91 1.06 1.02 0.96 0.93 1.13 1.19 1.28 1.59 1.66 1.68 1.56 1.81 1.87 1.56 1.50 1.39 1.24 1.18 1.15 1.23 1.38 1.52 1.72 1.77 1.93 2.06 1.99 1.85 1.92 2.12 2.26 2.38 2.76 2.64 2.54 2.36 2.27 2.13
0.03 0.02 0.01 0.02 0.05 0.08 0.06 0.12 0.29 0.62 0.82 0.70 0.60 0.83 0.91 1.23 1.56 1.75 1.98 1.84 2.09 2.19 2.42 2.59 2.17 2.08 1.96 1.96 1.90 1.62 1.70 1.81 1.93 2.06 2.19 2.25 2.43 2.47 2.44 2.37 2.31 2.16 2.24 2.58 2.83 2.70 2.71 2.61 2.44
0.04 0.03 0.02 0.03 0.05 0.06 0.11 0.22 0.40 0.68 0.63 0.57 0.72 1.13 1.34 1.32 1.60 1.98 2.13 2.21 2.54 2.72 2.84 2.98 2.88 2.89 2.74 2.52 2.55 2.53 2.18 2.25 2.23 2.25 2.18 2.35 2.57 2.87 3.00 2.87 2.72 2.41 2.31 2.36 2.64 2.71 2.92 2.85 2.65
0.05 0.05 0.08 0.09 0.09 0.09 0.15 0.45 0.57 0.69 0.58 0.61 0.84 1.20 1.53 1.46 1.61 1.90 2.10 2.59 3.29 3.63 3.51 3.56 3.55 3.79 3.65 3.25 2.96 2.70 2.52 2.48 2.59 2.57 2.46 2.56 2.78 3.04 3.03 2.85 2.52 2.29 2.29 2.43 2.40 2.40 2.70 2.52 2.38
0.06 0.10 0.22 0.21 0.15 0.14 0.23 0.74 0.82 0.72 0.86 0.93 1.11 1.28 1.55 1.59 1.63 1.86 2.33 3.11 3.95 4.47 4.38 4.20 3.80 4.14 4.14 3.82 3.58 3.28 3.03 3.06 2.98 2.67 2.58 2.54 2.71 2.61 2.71 2.40 2.09 2.16 2.31 2.41 2.52 2.41 2.49 2.53 2.62
0.11 0.15 0.21 0.26 0.19 0.16 0.28 0.90 0.92 0.68 0.96 1.21 1.12 1.26 1.47 1.65 1.79 1.91 2.47 3.31 4.15 4.92 5.12 5.09 4.98 4.69 4.43 4.25 4.10 3.90 3.74 3.40 3.02 2.84 2.71 2.45 2.21 2.01 2.18 2.05 2.00 2.03 2.22 2.25 2.09 2.39 2.61 2.62 2.65
0.12 0.15 0.20 0.27 0.22 0.20 0.34 0.69 0.77 0.79 0.95 1.13 1.11 1.13 1.23 1.50 1.93 2.03 2.35 3.09 4.02 4.89 5.43 5.59 5.63 5.29 4.79 4.34 3.98 3.91 3.67 3.38 3.10 2.86 2.66 2.29 2.07 1.84 2.05 1.98 1.91 1.95 2.12 2.22 2.34 2.61 2.72 2.46 2.41
0.10 0.13 0.21 0.28 0.22 0.24 0.41 0.59 0.72 0.83 1.06 1.19 1.22 1.17 1.21 1.51 1.97 2.14 2.45 2.93 3.74 4.47 5.15 5.25 5.51 5.04 4.41 3.87 3.49 3.37 3.17 2.86 2.74 2.61 2.45 2.30 2.07 1.95 2.15 1.99 2.04 1.91 1.98 2.00 2.11 2.36 2.48 2.14 2.26
0.11 0.15 0.24 0.25 0.18 0.22 0.43 0.71 0.87 0.95 0.94 1.00 1.05 1.11 1.22 1.58 2.04 2.38 2.91 3.30 3.33 3.87 4.57 4.61 4.32 4.10 3.67 3.28 3.12 2.95 2.89 2.57 2.38 2.24 2.24 2.04 1.90 1.90 1.90 2.02 1.90 1.87 1.98 1.98 2.05 2.26 2.26 2.00 2.20
0.14 0.17 0.21 0.20 0.18 0.27 0.49 0.89 1.17 1.09 0.82 0.74 0.80 0.90 1.03 1.38 1.89 2.31 2.73 3.17 3.14 3.52 3.60 3.23 3.08 3.16 3.11 2.95 2.85 2.72 2.70 2.50 2.23 2.06 2.03 1.88 1.69 1.69 1.70 1.71 1.77 1.88 1.71 1.84 2.01 2.16 2.27 2.14 2.08
0.11 0.09 0.09 0.09 0.17 0.33 0.49 1.07 1.47 1.25 0.94 0.77 0.80 0.97 1.04 1.15 1.35 1.63 1.97 2.39 2.59 2.68 2.59 2.56 2.54 2.58 2.78 2.79 2.57 2.38 2.10 2.00 1.93 1.82 1.87 1.85 1.62 1.54 1.56 1.56 1.71 1.79 1.74 1.93 1.69 1.81 2.09 2.28 2.10
0.07 0.05 0.06 0.11 0.16 0.32 0.55 0.91 1.31 1.29 1.23 1.06 0.93 0.98 0.93 0.97 1.04 1.18 1.27 1.48 1.77 2.02 2.09 2.07 2.35 2.45 2.48 2.47 2.43 2.43 2.16 1.98 1.94 2.05 2.24 2.17 1.84 1.52 1.37 1.47 1.62 1.72 1.77 1.84 1.78 1.88 1.87 1.95 1.99
0.05 0.06 0.14 0.28 0.42 0.76 0.75 0.81 1.16 1.12 1.07 1.06 0.92 0.78 0.73 0.77 0.82 0.99 1.03 1.07 1.20 1.35 1.48 1.60 1.87 2.08 2.16 2.13 2.15 2.21 2.21 2.17 2.00 1.93 1.98 1.91 1.77 1.57 1.40 1.44 1.63 1.71 1.75 1.76 1.80 1.80 1.74 1.83 1.92
0.06 0.09 0.34 0.74 1.06 1.23 0.80 0.77 0.97 0.85 0.86 0.94 0.75 0.52 0.49 0.59 0.64 0.82 0.81 0.85 0.95 0.99 1.09 1.27 1.48 1.65 1.77 1.85 1.94 2.00 2.18 2.12 1.89 1.68 1.71 1.70 1.56 1.47 1.45 1.43 1.69 1.78 1.76 1.75 1.83 1.80 1.78 1.90 1.97
0.07 0.07 0.21 0.38 0.53 0.74 0.79 1.15 1.08 0.70 0.67 0.60 0.44 0.34 0.32 0.48 0.57 0.62 0.57 0.59 0.74 0.80 0.88 1.04 1.17 1.26 1.38 1.60 1.83 1.82 1.94 1.79 1.66 1.76 1.66 1.56 1.37 1.40 1.61 1.72 1.75 1.72 1.76 1.77 1.99 1.85 1.86 1.94 1.97
0.06 0.05 0.07 0.11 0.17 0.47 0.89 1.27 1.06 0.64 0.58 0.47 0.34 0.26 0.31 0.39 0.53 0.51 0.44 0.46 0.50 0.55 0.62 0.79 1.07 1.17 1.21 1.30 1.52 1.63 1.62 1.62 1.69 1.81 1.75 1.63 1.56 1.45 1.62 1.77 1.85 1.77 1.75 1.84 2.05 2.00 2.04 2.14 2.05
0.06 0.06 0.07 0.09 0.17 0.36 0.76 1.15 1.25 1.00 0.73 0.50 0.39 0.37 0.45 0.47 0.60 0.63 0.46 0.41 0.44 0.43 0.51 0.63 0.81 1.02 1.21 1.21 1.21 1.26 1.50 1.57 1.68 1.72 1.62 1.61 1.58 1.58 1.64 1.61 1.65 1.64 1.62 1.75 2.05 2.05 2.10 2.26 2.20
0.08 0.08 0.09 0.11 0.15 0.26 0.57 0.84 0.78 0.78 0.64 0.50 0.50 0.59 0.47 0.46 0.52 0.59 0.41 0.33 0.37 0.41 0.48 0.62 0.76 1.04 1.23 1.15 1.16 1.27 1.44 1.53 1.58 1.73 1.71 1.64 1.61 1.65 1.60 1.55 1.58 1.56 1.46 1.53 1.72 1.84 2.04 2.17 2.23
0.10 0.11 0.11 0.15 0.17 0.18 0.30 0.53 0.46 0.54 0.55 0.64 0.67 0.64 0.56 0.54 0.54 0.57 0.49 0.49 0.51 0.56 0.60 0.71 0.83 1.01 1.12 1.14 1.21 1.27 1.37 1.44 1.48 1.53 1.62 1.69 1.67 1.71 1.68 1.63 1.59 1.47 1.44 1.53 1.65 1.79 1.96 2.11 2.23